Change the Weather History Date:

Sunday, December 29, 2013

  Actual Average (KRST) Record (KRST)
Temperature  
Mean Temperature 10 °F 16 °F  
Max Temperature 27 °F 24 °F 46 °F (1999)
Min Temperature -9 °F 9 °F -29 °F (1887)
Degree Days  
Heating Degree Days 56 49  
Month to date heating degree days 1308  
Since 1 July heating degree days 2980  
Cooling Degree Days 0 0  
Month to date cooling degree days 0  
Year to date cooling degree days 585  
Moisture  
Dew Point -4 °F    
Average Humidity 71    
Maximum Humidity 94    
Minimum Humidity 48    
Precipitation  
Precipitation 0.00 in 0.03 in 0.53 in (1972)
Month to date precipitation 1.17  
Year to date precipitation 32.96  
Snow  
Snow 0.00 in 0.40 in 3.50 in (1948)
Month to date snowfall 11.8  
Since 1 July snowfall 18.7  
Snow Depth -    
Sea Level Pressure  
Sea Level Pressure 30.14 in    
Wind  
Wind Speed 16 mph (WNW)    
Max Wind Speed 24 mph    
Max Gust Speed 34 mph    
Visibility 10 miles    
Events      
T = Trace of Precipitation, MM = Missing Value Source: NWS Daily Summary

Daily Weather History Graph

Daily Weather History Graph

Search for Another Location

Airport or City:

Trip Planner

Search our weather history database for the weather conditions in past years. The results will help you decide how hot, cold, wet, or windy it might be!

Date:

Astronomy

Dec. 29, 2013 Rise Set
Actual Time 7:44 AM CST 4:40 PM CST
Civil Twilight 7:11 AM CST 5:13 PM CST
Nautical Twilight 6:34 AM CST 5:49 PM CST
Astronomical Twilight 5:59 AM CST 6:24 PM CST
Moon 4:25 AM CST (12/29) 2:20 PM CST (12/29)
Length of Visible Light 10h 01m
Length of Day
8h 55m
Waning Crescent, 11% of the Moon is Illuminated
Dec 29
Waning Crescent
Jan 1
New
Jan 7
First Quarter
Jan 15
Full
Jan 23
Last Quarter

Hourly Weather History & Observations

Time (CST) Temp. Windchill Dew Point Humidity Pressure Visibility Wind Dir Wind Speed Gust Speed Precip Events Conditions
12:13 AM 27.7 °F 16.1 °F 26.2 °F 94% 29.86 in 4.0 mi NW 15.0 mph 26.5 mph N/A   Overcast
12:33 AM 26.2 °F 13.4 °F 24.6 °F 94% 29.87 in 4.0 mi NW 17.3 mph 29.9 mph N/A   Overcast
12:53 AM 24.8 °F 10.3 °F 23.0 °F 93% 29.88 in 7.0 mi NW 20.7 mph 29.9 mph N/A   Overcast
1:13 AM 23.9 °F 10.8 °F 22.1 °F 93% 29.90 in 7.0 mi NW 16.1 mph 28.8 mph N/A   Overcast
1:33 AM 23.4 °F 10.1 °F 21.7 °F 94% 29.91 in 7.0 mi NW 16.1 mph 26.5 mph N/A   Overcast
1:53 AM 22.6 °F 12.6 °F 20.1 °F 90% 29.94 in 10.0 mi NW 9.2 mph 28.8 mph N/A   Overcast
2:13 AM 21.9 °F 9.2 °F 19.2 °F 89% 29.94 in 10.0 mi NW 13.8 mph 25.3 mph N/A   Overcast
2:33 AM 21.0 °F 6.2 °F 18.5 °F 90% 29.95 in 7.0 mi NW 18.4 mph 28.8 mph N/A   Overcast
2:53 AM 18.7 °F 3.1 °F 16.5 °F 91% 29.96 in 7.0 mi NW 18.4 mph 33.4 mph N/A   Overcast
3:13 AM 16.9 °F -0.5 °F 15.1 °F 93% 29.97 in 10.0 mi NW 21.9 mph 34.5 mph N/A   Overcast
3:33 AM 16.2 °F 0.3 °F 13.8 °F 90% 29.98 in 10.0 mi NW 17.3 mph 34.5 mph N/A   Overcast
3:53 AM 15.4 °F -0.6 °F 12.2 °F 87% 29.99 in 10.0 mi NW 17.3 mph 25.3 mph N/A   Overcast
4:13 AM 14.9 °F 0.3 °F 11.3 °F 86% 30.00 in 10.0 mi NW 13.8 mph 27.6 mph N/A   Overcast
4:33 AM 13.6 °F -2.4 °F 9.7 °F 84% 30.01 in 10.0 mi NW 16.1 mph 33.4 mph N/A   Overcast
4:53 AM 12.4 °F -5.6 °F 7.7 °F 82% 30.02 in 10.0 mi NW 19.6 mph 31.1 mph N/A   Overcast
5:13 AM 12.0 °F -4.5 °F 7.2 °F 81% 30.03 in 10.0 mi NW 16.1 mph 27.6 mph N/A   Overcast
5:33 AM 11.3 °F -6.0 °F 6.1 °F 80% 30.05 in 10.0 mi NW 17.3 mph 28.8 mph N/A   Overcast
5:53 AM 10.4 °F -5.4 °F 5.0 °F 79% 30.06 in 10.0 mi NW 13.8 mph 29.9 mph N/A   Overcast
6:13 AM 9.5 °F -7.2 °F 4.1 °F 79% 30.08 in 10.0 mi NW 15.0 mph 26.5 mph N/A   Overcast
6:33 AM 9.1 °F -7.7 °F 3.6 °F 78% 30.10 in 10.0 mi NW 15.0 mph 29.9 mph N/A   Overcast
6:52 AM 8.6 °F -11.0 °F 3.2 °F 79% 30.11 in 7.0 mi NW 20.7 mph 29.9 mph N/A   Overcast
7:13 AM 7.9 °F -9.9 °F 2.5 °F 79% 30.12 in 10.0 mi NW 16.1 mph 28.8 mph N/A   Overcast
7:33 AM 7.7 °F -12.2 °F 2.3 °F 79% 30.13 in 10.0 mi NW 20.7 mph 26.5 mph N/A   Overcast
7:53 AM 6.6 °F -11.5 °F 1.4 °F 79% 30.14 in 10.0 mi NW 16.1 mph 25.3 mph N/A   Overcast
8:13 AM 6.3 °F -9.2 °F 1.4 °F 80% 30.15 in 10.0 mi NW 11.5 mph 18.4 mph N/A   Overcast
8:33 AM 5.4 °F -12.5 °F 0.3 °F 80% 30.15 in 7.0 mi NW 15.0 mph 25.3 mph N/A   Overcast
8:52 AM 4.1 °F -15.3 °F -0.9 °F 80% 30.16 in 10.0 mi NW 17.3 mph 25.3 mph N/A   Overcast
9:13 AM 3.7 °F -15.2 °F -2.4 °F 76% 30.16 in 10.0 mi NW 16.1 mph 25.3 mph N/A   Overcast
9:33 AM 3.0 °F -14.1 °F -3.3 °F 75% 30.17 in 10.0 mi NW 12.7 mph 24.2 mph N/A   Overcast
9:53 AM 2.3 °F -17.1 °F -4.5 °F 73% 30.18 in 10.0 mi NW 16.1 mph 24.2 mph N/A   Overcast
10:13 AM 1.2 °F -20.7 °F -5.4 °F 74% 30.18 in 10.0 mi WNW 20.7 mph 27.6 mph N/A   Overcast
10:33 AM 0.9 °F -18.3 °F -5.8 °F 74% 30.19 in 10.0 mi NW 15.0 mph 26.5 mph N/A   Overcast
10:53 AM 0.7 °F -20.3 °F -7.6 °F 68% 30.18 in 10.0 mi WNW 18.4 mph 26.5 mph N/A   Overcast
11:13 AM 1.8 °F -20.5 °F -6.7 °F 68% 30.18 in 10.0 mi NW 21.9 mph 27.6 mph N/A   Scattered Clouds
11:33 AM 1.4 °F -21.4 °F -7.4 °F 67% 30.18 in 10.0 mi NW 23.0 mph 31.1 mph N/A   Scattered Clouds
11:53 AM 0.9 °F -22.2 °F -8.7 °F 64% 30.17 in 10.0 mi WNW 23.0 mph 32.2 mph N/A   Scattered Clouds
12:13 PM 1.0 °F -19.9 °F -8.0 °F 66% 30.18 in 10.0 mi WNW 18.4 mph 28.8 mph N/A   Scattered Clouds
12:33 PM 0.5 °F -23.1 °F -10.3 °F 60% 30.17 in 10.0 mi WNW 24.2 mph 29.9 mph N/A   Clear
12:53 PM 0.3 °F -18.3 °F -9.6 °F 63% 30.18 in 10.0 mi NW 13.8 mph 28.8 mph N/A   Clear
1:13 PM -0.0 °F -22.4 °F -11.2 °F 59% 30.17 in 10.0 mi WNW 20.7 mph 28.8 mph N/A   Clear
1:33 PM 0.1 °F -21.0 °F -11.9 °F 57% 30.18 in 10.0 mi NW 18.4 mph 25.3 mph N/A   Clear
1:53 PM -0.2 °F -22.6 °F -12.6 °F 56% 30.18 in 10.0 mi WNW 20.7 mph 28.8 mph N/A   Scattered Clouds
2:13 PM -0.0 °F -20.1 °F -13.5 °F 53% 30.19 in 10.0 mi NW 16.1 mph 27.6 mph N/A   Scattered Clouds
2:33 PM 0.9 °F -21.7 °F -13.5 °F 51% 30.18 in 10.0 mi WNW 21.9 mph 27.6 mph N/A   Clear
2:53 PM 0.1 °F -16.9 °F -15.5 °F 48% 30.19 in 10.0 mi WNW 11.5 mph 27.6 mph N/A   Clear
3:13 PM -0.6 °F -22.5 °F -15.7 °F 49% 30.19 in 10.0 mi WNW 19.6 mph 25.3 mph N/A   Clear
3:33 PM -0.8 °F -20.3 °F -16.1 °F 48% 30.20 in 10.0 mi WNW 15.0 mph 21.9 mph N/A   Clear
3:53 PM -1.3 °F -22.9 °F -15.5 °F 51% 30.20 in 10.0 mi WNW 18.4 mph 24.2 mph N/A   Clear
4:13 PM -1.3 °F -20.3 °F -14.3 °F 54% 30.21 in 10.0 mi West 13.8 mph 21.9 mph N/A   Clear
4:33 PM -2.0 °F -20.5 °F -15.5 °F 53% 30.21 in 10.0 mi WNW 12.7 mph 21.9 mph N/A   Clear
4:53 PM -2.7 °F -19.6 °F -16.1 °F 53% 30.21 in 10.0 mi WNW 10.4 mph 20.7 mph N/A   Clear
5:13 PM -2.9 °F -22.4 °F -15.5 °F 55% 30.22 in 10.0 mi WNW 13.8 mph 23.0 mph N/A   Clear
5:33 PM -3.3 °F -22.8 °F -14.8 °F 58% 30.22 in 10.0 mi WNW 13.8 mph 21.9 mph N/A   Clear
5:53 PM -4.0 °F -21.2 °F -15.2 °F 59% 30.21 in 10.0 mi WNW 10.4 mph 17.3 mph N/A   Clear
6:13 PM -4.7 °F -25.4 °F -15.3 °F 60% 30.22 in 10.0 mi WNW 15.0 mph - N/A   Clear
6:32 PM -5.1 °F -23.5 °F -15.2 °F 62% 30.22 in 10.0 mi WNW 11.5 mph - N/A   Clear
6:53 PM -6.0 °F -23.6 °F -15.7 °F 63% 30.22 in 10.0 mi WNW 10.4 mph - N/A   Clear
7:13 PM -6.3 °F -25.0 °F -16.1 °F 63% 30.22 in 10.0 mi WNW 11.5 mph - N/A   Clear
7:32 PM -6.7 °F -24.5 °F -16.1 °F 64% 30.23 in 10.0 mi West 10.4 mph - N/A   Clear
7:53 PM -7.2 °F -25.2 °F -17.3 °F 62% 30.24 in 10.0 mi West 10.4 mph 17.3 mph N/A   Clear
8:13 PM -7.1 °F -23.9 °F -16.6 °F 63% 30.24 in 10.0 mi WNW 9.2 mph 16.1 mph N/A   Clear
8:33 PM -7.1 °F -25.0 °F -16.1 °F 65% 30.24 in 10.0 mi WNW 10.4 mph - N/A   Clear
8:53 PM -7.6 °F -24.6 °F -16.1 °F 67% 30.24 in 10.0 mi WNW 9.2 mph - N/A   Clear
9:13 PM -8.0 °F -25.0 °F -16.6 °F 66% 30.24 in 10.0 mi WNW 9.2 mph - N/A   Clear
9:33 PM -8.1 °F -24.1 °F -17.0 °F 65% 30.24 in 10.0 mi WNW 8.1 mph - N/A   Clear
9:53 PM -7.4 °F -20.4 °F -15.5 °F 68% 30.24 in 10.0 mi West 5.8 mph - N/A   Clear
10:13 PM -8.1 °F -24.1 °F -16.6 °F 67% 30.24 in 10.0 mi West 8.1 mph - N/A   Clear
10:33 PM -8.3 °F -23.0 °F -17.0 °F 66% 30.24 in 10.0 mi West 6.9 mph - N/A   Clear
10:53 PM -8.0 °F -21.0 °F -16.2 °F 67% 30.25 in 10.0 mi West 5.8 mph - N/A   Clear
11:13 PM -8.1 °F -22.7 °F -16.6 °F 67% 30.25 in 10.0 mi West 6.9 mph - N/A   Clear
11:33 PM -8.9 °F -22.1 °F -17.5 °F 66% 30.25 in 10.0 mi West 5.8 mph - N/A   Clear
11:53 PM -9.4 °F -25.6 °F -18.0 °F 66% 30.26 in 10.0 mi West 8.1 mph - N/A   Clear